SCP
0 0 0 0 -0 0 0 0 0 0 0 0 0 0 0 0 0 0 0 0 -0 0 0 -0 -1 0 1 1 1 0 1 3 2 2 2 4 2 4 3 1 1 0 0 0
0 0 -0 0 0 0 -0 0 0 0 0 0 0 0 0 0 0 -0 0 0 0 -0 -0 -1 -0 -0 -1 -1 0 0 1 1 1 1 2 3 1 1 1 0 0 0 0 0
0 0 0 0 0 -0 0 0 0 0 0 0 0 0 -0 0 -0 -0 0 0 -0 -1 -1 -1 -0 -0 -1 0 1 1 0 0 0 0 0 0 0 -0 -0 0 0 0 0 0
0 0 0 -0 0 -0 0 0 -0 0 0 0 0 0 -0 0 -0 0 0 0 0 0 -0 -0 -0 -0 -0 -0 -0 -0 -0 -0 -0 0 0 0 0 -0 -0 -0 0 0 0 0
-0 0 0 0 0 0 -0 0 0 0 0 0 0 0 0 1 0 0 0 1 1 0 0 -0 -0 -0 -0 -0 0 -0 -0 -0 -0 0 0 0 0 0 0 0 0 0 0 0
-0 -0 -0 0 0 0 0 0 0 1 1 1 0 0 1 1 1 1 0 0 1 0 0 -0 -0 -0 0 0 0 0 -0 0 0 0 0 0 0 0 0 0 0 0 0 0
0 0 0 1 0 0 0 0 1 1 1 1 1 1 1 1 0 1 0 1 0 0 0 0 0 0 1 1 0 0 0 0 1 0 0 0 0 0 0 0 0 0 0 0
0 -0 0 1 0 1 1 1 1 1 1 1 1 1 1 0 0 1 1 1 0 1 0 1 1 1 0 0 0 1 0 1 1 1 1 0 0 0 0 0 0 0 0 0
0 0 0 0 0 0 0 0 0 0 0 0 0 0 1 0 0 1 1 1 1 1 1 2 1 1 1 1 1 1 1 1 2 1 0 0 0 0 0 0 0 0 0 0
0 0 0 0 0 0 0 0 0 0 0 0 0 0 1 0 0 1 1 1 1 1 1 1 2 1 1 2 2 2 2 1 1 1 0 0 0 0 0 0 0 0 0 0
0 0 0 0 0 0 0 0 0 0 0 0 0 0 1 0 0 1 0 0 1 1 1 1 1 1 1 2 2 2 1 1 1 0 0 0 0 0 0 0 0 0 0 0
0 0 1 1 0 0 0 0 -0 0 0 0 0 0 0 1 1 0 0 0 1 1 1 1 1 3 4 1 1 1 1 1 1 0 0 0 0 0 0 0 0 0 0 0
-0 0 0 0 0 0 -0 -0 -0 0 0 0 0 0 1 1 0 0 0 1 2 1 1 1 1 1 1 1 1 1 1 1 1 0 0 0 0 0 0 0 0 0 0 0
0 0 0 0 0 0 0 0 0 -0 -0 -0 0 1 1 1 1 1 1 1 1 1 1 1 1 1 1 1 1 1 1 0 0 0 0 0 0 0 0 0 0 0 0 0
-0 -0 -0 0 0 0 0 -0 0 0 0 0 1 1 1 1 1 1 1 1 1 1 1 1 1 1 1 1 1 1 0 0 0 0 0 0 0 0 0 0 0 0 0 0
0 0 0 0 0 0 0 0 -0 0 0 0 1 1 1 2 2 1 1 1 1 1 1 1 1 0 0 0 0 0 0 0 0 0 0 0 0 0 0 0 0 0 0 0
0 0 0 0 0 0 0 -0 0 0 1 1 0 1 2 3 2 1 1 1 1 1 0 0 0 0 0 0 0 0 0 0 0 0 0 0 0 0 0 0 0 0 0 0
0 0 0 0 0 0 0 0 0 1 0 0 0 -0 -0 0 1 1 0 0 0 0 0 0 0 0 0 0 0 0 0 0 0 0 0 0 0 0 0 0 0 0 0 0
0 0 0 0 -0 -0 0 0 0 0 0 0 0 -0 -0 0 0 0 0 0 0 0 0 0 0 0 0 0 0 0 0 0 0 0 0 0 0 0 0 0 0 0 0 0
0 0 0 -0 -0 0 0 0 0 0 0 0 0 -0 -0 -0 0 0 0 0 0 0 0 0 0 0 0 0 0 0 0 0 0 0 0 0 0 0 0 0 -0 -0 -0 0
0 0 0 0 0 0 0 -0 0 1 0 0 0 0 0 0 0 0 0 0 0 0 0 0 0 0 0 0 0 0 0 0 0 0 0 0 0 -0 0 0 0 0 0 0
0 0 0 0 0 0 0 0 -0 -0 0 0 0 0 0 0 0 0 0 0 0 0 0 0 0 0 0 0 0 0 0 0 0 0 0 0 0 0 0 0 0 0 0 0
0 0 0 0 0 0 0 0 -0 -0 0 0 0 0 0 0 0 0 0 0 0 0 0 0 0 0 0 0 0 0 0 0 0 0 0 0 0 0 -0 0 0 0 0 0
1 1 1 1 1 0 0 0 0 0 0 0 0 0 0 0 0 0 0 0 0 0 0 0 0 0 0 0 0 0 0 0 0 0 0 0 0 0 0 0 0 0 0 0
1 1 0 0 0 0 0 0 0 0 0 0 0 0 0 0 0 0 0 0 0 0 0 0 0 0 0 0 0 0 0 0 0 0 0 0 0 0 0 0 0 0 0 0
1 1 1 1 0 0 0 0 0 0 0 0 0 0 0 0 0 0 0 0 0 0 0 0 0 0 0 0 0 0 0 0 0 0 0 0 0 0 0 0 0 0 0 0
0 0 0 0 0 0 0 0 0 0 0 0 0 0 0 0 0 0 0 0 0 0 0 0 0 0 0 0 0 0 0 0 0 0 0 0 0 0 0 0 0 0 0 0
Wind_Speed_500mb
12 23 11 22 34 27 33 30 35 30 10 18 12 17 17 12 12 13 22 34 46 49 51 47 46 47 48 58 67 53 50 50 44 45 47 53 56 52 38 28 16 12 8 9
21 26 26 21 26 30 39 30 28 37 29 21 16 12 14 21 8 13 25 36 45 50 51 53 51 49 48 49 53 56 45 38 43 47 55 51 40 38 46 29 17 12 10 9
28 28 28 25 26 31 30 31 29 28 21 12 17 25 34 11 10 17 29 41 49 54 54 52 51 51 51 57 50 45 41 40 41 55 57 47 40 36 26 20 16 15 9 13
25 31 35 36 18 38 21 22 33 24 24 17 19 28 39 15 9 17 33 44 48 51 50 46 45 48 53 59 56 47 31 28 35 41 46 51 45 37 26 17 14 12 11 11
23 25 31 35 19 10 58 19 35 32 32 31 29 34 30 24 7 14 32 39 43 41 43 46 50 54 58 49 45 36 31 40 42 47 49 42 43 33 24 19 17 16 13 10
23 29 35 23 11 13 16 16 28 30 27 27 32 18 16 16 12 6 23 36 40 38 39 44 47 51 44 39 38 32 34 36 45 48 46 45 40 31 27 22 18 16 13 15
27 28 25 17 17 13 17 10 29 29 26 24 17 19 20 14 4 10 21 31 37 38 38 39 42 43 36 32 29 31 37 40 45 42 44 38 36 33 27 22 21 19 19 19
18 29 13 30 12 14 18 20 23 21 22 20 19 13 7 11 9 16 26 31 36 39 36 38 42 40 33 23 24 35 42 44 39 40 42 37 33 29 25 26 21 20 20 18
10 4 8 52 11 20 20 22 22 23 23 21 21 12 7 7 6 18 25 31 34 36 40 39 42 35 29 23 28 35 42 48 51 46 38 35 31 27 26 23 20 20 19 16
25 20 7 8 6 10 17 15 21 23 23 21 20 10 4 5 12 19 25 28 32 36 39 40 42 30 29 37 39 40 45 45 47 40 36 31 27 25 22 23 21 21 20 18
23 33 26 12 2 12 19 19 20 20 17 17 16 13 6 12 22 24 25 28 30 35 40 41 39 31 35 37 42 50 48 46 39 37 31 32 27 25 21 24 23 21 20 18
10 10 5 17 14 22 25 23 19 18 19 14 12 15 13 17 20 27 33 35 33 40 39 35 41 37 35 46 44 46 45 41 33 33 32 31 31 34 34 22 32 36 33 25
31 13 18 8 34 33 26 26 18 16 21 18 8 10 18 17 17 20 23 32 32 36 40 36 29 35 37 46 47 43 38 47 41 33 33 30 24 22 21 24 23 26 27 28
20 27 35 34 37 29 27 23 20 21 16 15 8 7 11 13 15 17 18 23 28 32 34 35 35 36 43 42 40 40 42 44 38 30 28 25 20 18 16 17 16 19 19 10
46 50 50 44 37 36 33 28 26 22 13 13 10 11 13 16 19 20 21 21 23 25 29 36 39 41 44 41 41 38 33 34 30 26 24 24 22 20 16 14 14 13 13 20
31 31 30 29 31 28 26 27 25 24 16 14 5 11 17 22 24 25 23 23 26 24 29 35 40 40 37 39 38 33 30 34 36 37 29 22 19 16 13 13 12 12 13 10
42 39 31 29 20 22 23 32 24 19 17 23 16 15 23 32 30 29 26 22 21 27 28 36 39 46 41 33 26 31 37 45 33 25 22 19 17 16 15 14 12 11 9 13
36 41 45 44 39 32 26 24 22 13 18 23 21 28 22 25 26 26 22 22 25 26 25 28 32 32 28 26 29 29 27 28 25 22 22 21 17 15 16 13 11 11 11 13
34 37 36 39 43 39 29 23 17 14 20 27 34 30 24 28 27 22 21 23 23 21 22 25 30 28 31 40 32 22 23 25 24 25 22 19 18 18 17 12 13 14 14 14
29 30 33 33 33 28 21 18 22 25 28 32 27 24 19 20 24 24 22 21 17 15 24 27 32 26 27 31 33 25 26 24 24 22 19 17 18 17 16 15 15 15 15 15
10 9 16 23 22 20 21 22 32 35 16 20 27 28 25 27 27 27 26 24 23 26 24 32 27 25 26 33 31 23 24 27 26 24 21 21 20 17 17 13 10 11 16 14
5 2 7 12 15 17 17 23 37 43 40 29 27 32 37 34 32 30 27 30 27 39 32 29 26 29 27 36 22 23 24 26 26 22 21 21 20 19 15 14 11 11 12 13
3 3 8 13 16 19 23 30 25 21 29 18 28 33 33 33 32 32 25 30 31 37 26 24 33 37 33 30 20 22 24 25 24 22 22 22 22 18 16 13 11 14 15 13
6 10 17 18 21 25 26 24 25 25 27 30 30 32 31 30 25 21 27 33 34 34 24 32 28 34 37 18 21 22 22 22 24 24 25 22 24 20 17 14 15 14 16 19
10 12 20 21 22 20 22 22 22 23 25 26 27 28 25 22 24 22 28 33 40 26 26 25 30 35 29 17 19 18 19 23 24 25 25 23 24 23 22 20 20 19 19 24
9 4 14 12 16 17 19 23 23 24 25 28 27 25 23 22 26 28 28 32 32 24 21 30 30 32 23 19 20 22 22 23 25 28 23 23 24 25 25 23 24 24 26 28
8 10 11 15 17 15 16 20 22 24 25 26 27 24 25 25 26 25 29 31 26 23 16 16 20 24 22 23 23 23 25 24 25 23 22 24 25 27 26 25 25 26 28 33
Wind_Direction_500mb
288 310 295 298 296 224 244 268 277 284 354 298 40 327 27 31 3 237 171 172 167 173 178 178 178 179 179 176 187 190 185 191 198 192 188 180 181 168 186 193 208 239 260 304
288 282 259 245 271 269 278 228 260 270 283 327 315 294 2 43 326 201 185 175 172 173 178 177 182 182 179 182 175 177 180 186 195 195 186 182 199 196 184 186 212 240 247 295
292 303 299 272 242 244 259 250 240 253 246 314 352 350 322 118 291 194 185 181 177 179 182 184 182 178 180 169 170 175 183 205 204 195 195 216 190 187 178 187 208 245 272 290
276 279 273 274 34 316 299 250 252 247 279 321 313 293 292 357 169 207 189 188 186 185 179 180 178 175 170 174 184 187 196 180 184 187 189 191 192 197 193 212 222 240 236 254
282 271 275 272 342 55 312 246 34 1 355 345 332 346 53 34 18 216 192 191 191 191 182 174 174 170 169 177 188 194 189 180 183 181 191 191 186 189 201 202 205 207 219 212
273 286 282 297 52 338 311 264 29 11 0 354 341 294 56 13 1 199 191 189 187 186 184 180 177 170 167 174 185 180 173 172 174 182 176 174 182 185 183 191 195 185 190 175
237 237 250 12 351 313 254 5 358 356 346 346 329 333 332 337 299 212 189 183 185 183 184 182 181 181 173 172 176 178 168 170 180 179 173 179 182 185 185 172 177 178 176 177
298 304 236 349 315 319 0 335 344 337 328 314 303 309 327 292 245 210 190 180 182 176 179 180 181 183 184 186 179 171 173 173 177 175 177 177 178 177 172 184 186 184 180 166
191 241 48 248 3 343 341 328 323 314 310 296 298 301 302 273 208 183 181 174 176 177 177 174 175 174 181 187 177 170 172 171 174 176 176 178 175 178 181 177 169 163 170 172
282 294 38 1 76 5 348 324 311 302 297 275 273 274 256 214 170 165 172 170 175 171 169 168 168 169 181 188 178 168 168 174 168 169 173 170 168 168 166 167 174 175 180 188
274 264 263 241 151 347 324 308 308 309 298 274 273 256 194 185 175 163 159 159 172 172 167 167 173 186 200 190 175 170 174 161 159 169 159 159 157 162 175 180 187 189 192 199
281 349 250 27 318 312 310 298 288 312 311 283 279 241 179 177 183 175 173 170 159 170 170 176 185 182 177 172 167 163 161 158 165 159 161 162 174 176 180 197 193 191 196 185
280 148 222 234 273 297 288 291 261 299 304 275 261 237 193 186 184 185 174 176 166 162 175 167 169 168 170 166 169 163 157 164 169 166 166 174 168 169 177 198 197 206 220 218
270 284 290 283 286 290 293 276 265 280 293 247 242 211 186 178 181 163 172 174 174 174 172 166 164 173 170 159 164 159 164 168 161 168 173 169 169 163 179 177 198 212 219 232
272 265 266 271 272 269 270 259 266 267 264 227 214 192 174 169 156 155 150 154 152 158 159 159 163 166 162 166 156 167 176 156 160 173 173 172 170 175 184 179 201 214 235 248
281 252 249 249 252 256 249 246 263 263 225 201 187 181 171 155 151 140 138 144 143 153 158 159 163 153 157 158 158 163 163 167 171 177 173 170 183 177 185 199 210 221 233 248
266 257 244 259 243 243 251 249 268 259 228 214 218 179 167 155 146 131 134 140 150 154 160 165 172 169 175 172 172 162 184 182 173 162 173 184 182 190 200 201 209 213 228 218
258 256 252 249 247 251 260 260 254 239 231 207 176 165 158 140 146 149 150 149 150 152 161 172 174 172 156 156 169 172 180 176 175 178 184 184 185 198 201 206 212 234 243 204
268 255 250 242 239 249 260 252 235 205 172 166 155 150 148 157 166 166 156 156 159 160 175 178 180 166 161 180 172 172 181 183 180 181 180 184 196 204 202 216 241 249 258 227
278 258 241 229 230 238 230 221 191 169 169 174 165 157 159 163 160 158 164 166 174 185 202 191 173 168 172 180 164 184 186 185 184 182 187 200 201 197 220 253 261 277 270 261
299 233 208 217 216 208 209 188 168 153 141 170 169 173 175 177 174 176 173 169 171 207 177 173 168 178 182 181 174 181 189 187 188 190 197 208 206 220 216 210 242 259 280 279
326 248 195 196 198 197 198 189 179 155 173 169 175 175 185 185 175 173 177 183 185 172 184 172 177 180 187 173 174 189 188 190 196 203 208 213 210 215 223 238 255 265 278 291
12 120 139 141 149 152 161 174 167 153 153 186 180 178 169 164 167 172 173 177 178 171 167 182 197 190 187 177 188 195 198 201 207 215 216 215 215 221 235 247 265 286 289 296
105 125 130 128 133 137 144 146 143 145 148 154 152 146 155 162 173 182 189 176 171 156 179 198 201 179 166 178 193 198 200 211 218 220 217 218 220 225 233 250 271 273 274 287
69 124 132 130 128 131 136 143 147 149 147 151 151 150 157 164 171 168 162 164 169 161 189 195 179 177 177 189 198 209 212 212 216 219 218 220 226 232 244 257 267 269 275 281
33 97 137 123 128 142 148 148 149 151 149 145 145 150 156 156 156 153 160 161 160 173 178 180 184 188 197 207 218 216 218 216 221 218 213 223 233 242 252 262 272 272 274 278
162 126 118 112 118 134 159 157 150 150 153 153 150 153 148 146 152 158 157 160 167 164 175 184 197 206 208 219 225 223 224 223 223 223 233 238 242 248 253 259 266 271 276 286
Wind_Speed_850mb
12 23 11 22 34 27 33 30 35 30 10 18 12 17 17 12 12 13 22 34 46 49 51 47 46 47 48 58 67 53 50 50 44 45 47 53 56 52 38 28 16 12 8 9
21 26 26 21 26 30 39 30 28 37 29 21 16 12 14 21 8 13 25 36 45 50 51 53 51 49 48 49 53 56 45 38 43 47 55 51 40 38 46 29 17 12 10 9
28 28 28 25 26 31 30 31 29 28 21 12 17 25 34 11 10 17 29 41 49 54 54 52 51 51 51 57 50 45 41 40 41 55 57 47 40 36 26 20 16 15 9 13
25 31 35 36 18 38 21 22 33 24 24 17 19 28 39 15 9 17 33 44 48 51 50 46 45 48 53 59 56 47 31 28 35 41 46 51 45 37 26 17 14 12 11 11
23 25 31 35 19 10 58 19 35 32 32 31 29 34 30 24 7 14 32 39 43 41 43 46 50 54 58 49 45 36 31 40 42 47 49 42 43 33 24 19 17 16 13 10
23 29 35 23 11 13 16 16 28 30 27 27 32 18 16 16 12 6 23 36 40 38 39 44 47 51 44 39 38 32 34 36 45 48 46 45 40 31 27 22 18 16 13 15
27 28 25 17 17 13 17 10 29 29 26 24 17 19 20 14 4 10 21 31 37 38 38 39 42 43 36 32 29 31 37 40 45 42 44 38 36 33 27 22 21 19 19 19
18 29 13 30 12 14 18 20 23 21 22 20 19 13 7 11 9 16 26 31 36 39 36 38 42 40 33 23 24 35 42 44 39 40 42 37 33 29 25 26 21 20 20 18
10 4 8 52 11 20 20 22 22 23 23 21 21 12 7 7 6 18 25 31 34 36 40 39 42 35 29 23 28 35 42 48 51 46 38 35 31 27 26 23 20 20 19 16
25 20 7 8 6 10 17 15 21 23 23 21 20 10 4 5 12 19 25 28 32 36 39 40 42 30 29 37 39 40 45 45 47 40 36 31 27 25 22 23 21 21 20 18
23 33 26 12 2 12 19 19 20 20 17 17 16 13 6 12 22 24 25 28 30 35 40 41 39 31 35 37 42 50 48 46 39 37 31 32 27 25 21 24 23 21 20 18
10 10 5 17 14 22 25 23 19 18 19 14 12 15 13 17 20 27 33 35 33 40 39 35 41 37 35 46 44 46 45 41 33 33 32 31 31 34 34 22 32 36 33 25
31 13 18 8 34 33 26 26 18 16 21 18 8 10 18 17 17 20 23 32 32 36 40 36 29 35 37 46 47 43 38 47 41 33 33 30 24 22 21 24 23 26 27 28
20 27 35 34 37 29 27 23 20 21 16 15 8 7 11 13 15 17 18 23 28 32 34 35 35 36 43 42 40 40 42 44 38 30 28 25 20 18 16 17 16 19 19 10
46 50 50 44 37 36 33 28 26 22 13 13 10 11 13 16 19 20 21 21 23 25 29 36 39 41 44 41 41 38 33 34 30 26 24 24 22 20 16 14 14 13 13 20
31 31 30 29 31 28 26 27 25 24 16 14 5 11 17 22 24 25 23 23 26 24 29 35 40 40 37 39 38 33 30 34 36 37 29 22 19 16 13 13 12 12 13 10
42 39 31 29 20 22 23 32 24 19 17 23 16 15 23 32 30 29 26 22 21 27 28 36 39 46 41 33 26 31 37 45 33 25 22 19 17 16 15 14 12 11 9 13
36 41 45 44 39 32 26 24 22 13 18 23 21 28 22 25 26 26 22 22 25 26 25 28 32 32 28 26 29 29 27 28 25 22 22 21 17 15 16 13 11 11 11 13
34 37 36 39 43 39 29 23 17 14 20 27 34 30 24 28 27 22 21 23 23 21 22 25 30 28 31 40 32 22 23 25 24 25 22 19 18 18 17 12 13 14 14 14
29 30 33 33 33 28 21 18 22 25 28 32 27 24 19 20 24 24 22 21 17 15 24 27 32 26 27 31 33 25 26 24 24 22 19 17 18 17 16 15 15 15 15 15
10 9 16 23 22 20 21 22 32 35 16 20 27 28 25 27 27 27 26 24 23 26 24 32 27 25 26 33 31 23 24 27 26 24 21 21 20 17 17 13 10 11 16 14
5 2 7 12 15 17 17 23 37 43 40 29 27 32 37 34 32 30 27 30 27 39 32 29 26 29 27 36 22 23 24 26 26 22 21 21 20 19 15 14 11 11 12 13
3 3 8 13 16 19 23 30 25 21 29 18 28 33 33 33 32 32 25 30 31 37 26 24 33 37 33 30 20 22 24 25 24 22 22 22 22 18 16 13 11 14 15 13
6 10 17 18 21 25 26 24 25 25 27 30 30 32 31 30 25 21 27 33 34 34 24 32 28 34 37 18 21 22 22 22 24 24 25 22 24 20 17 14 15 14 16 19
10 12 20 21 22 20 22 22 22 23 25 26 27 28 25 22 24 22 28 33 40 26 26 25 30 35 29 17 19 18 19 23 24 25 25 23 24 23 22 20 20 19 19 24
9 4 14 12 16 17 19 23 23 24 25 28 27 25 23 22 26 28 28 32 32 24 21 30 30 32 23 19 20 22 22 23 25 28 23 23 24 25 25 23 24 24 26 28
8 10 11 15 17 15 16 20 22 24 25 26 27 24 25 25 26 25 29 31 26 23 16 16 20 24 22 23 23 23 25 24 25 23 22 24 25 27 26 25 25 26 28 33
Wind_Direction_850mb
288 310 295 298 296 224 244 268 277 284 354 298 40 327 27 31 3 237 171 172 167 173 178 178 178 179 179 176 187 190 185 191 198 192 188 180 181 168 186 193 208 239 260 304
288 282 259 245 271 269 278 228 260 270 283 327 315 294 2 43 326 201 185 175 172 173 178 177 182 182 179 182 175 177 180 186 195 195 186 182 199 196 184 186 212 240 247 295
292 303 299 272 242 244 259 250 240 253 246 314 352 350 322 118 291 194 185 181 177 179 182 184 182 178 180 169 170 175 183 205 204 195 195 216 190 187 178 187 208 245 272 290
276 279 273 274 34 316 299 250 252 247 279 321 313 293 292 357 169 207 189 188 186 185 179 180 178 175 170 174 184 187 196 180 184 187 189 191 192 197 193 212 222 240 236 254
282 271 275 272 342 55 312 246 34 1 355 345 332 346 53 34 18 216 192 191 191 191 182 174 174 170 169 177 188 194 189 180 183 181 191 191 186 189 201 202 205 207 219 212
273 286 282 297 52 338 311 264 29 11 0 354 341 294 56 13 1 199 191 189 187 186 184 180 177 170 167 174 185 180 173 172 174 182 176 174 182 185 183 191 195 185 190 175
237 237 250 12 351 313 254 5 358 356 346 346 329 333 332 337 299 212 189 183 185 183 184 182 181 181 173 172 176 178 168 170 180 179 173 179 182 185 185 172 177 178 176 177
298 304 236 349 315 319 0 335 344 337 328 314 303 309 327 292 245 210 190 180 182 176 179 180 181 183 184 186 179 171 173 173 177 175 177 177 178 177 172 184 186 184 180 166
191 241 48 248 3 343 341 328 323 314 310 296 298 301 302 273 208 183 181 174 176 177 177 174 175 174 181 187 177 170 172 171 174 176 176 178 175 178 181 177 169 163 170 172
282 294 38 1 76 5 348 324 311 302 297 275 273 274 256 214 170 165 172 170 175 171 169 168 168 169 181 188 178 168 168 174 168 169 173 170 168 168 166 167 174 175 180 188
274 264 263 241 151 347 324 308 308 309 298 274 273 256 194 185 175 163 159 159 172 172 167 167 173 186 200 190 175 170 174 161 159 169 159 159 157 162 175 180 187 189 192 199
281 349 250 27 318 312 310 298 288 312 311 283 279 241 179 177 183 175 173 170 159 170 170 176 185 182 177 172 167 163 161 158 165 159 161 162 174 176 180 197 193 191 196 185
280 148 222 234 273 297 288 291 261 299 304 275 261 237 193 186 184 185 174 176 166 162 175 167 169 168 170 166 169 163 157 164 169 166 166 174 168 169 177 198 197 206 220 218
270 284 290 283 286 290 293 276 265 280 293 247 242 211 186 178 181 163 172 174 174 174 172 166 164 173 170 159 164 159 164 168 161 168 173 169 169 163 179 177 198 212 219 232
272 265 266 271 272 269 270 259 266 267 264 227 214 192 174 169 156 155 150 154 152 158 159 159 163 166 162 166 156 167 176 156 160 173 173 172 170 175 184 179 201 214 235 248
281 252 249 249 252 256 249 246 263 263 225 201 187 181 171 155 151 140 138 144 143 153 158 159 163 153 157 158 158 163 163 167 171 177 173 170 183 177 185 199 210 221 233 248
266 257 244 259 243 243 251 249 268 259 228 214 218 179 167 155 146 131 134 140 150 154 160 165 172 169 175 172 172 162 184 182 173 162 173 184 182 190 200 201 209 213 228 218
258 256 252 249 247 251 260 260 254 239 231 207 176 165 158 140 146 149 150 149 150 152 161 172 174 172 156 156 169 172 180 176 175 178 184 184 185 198 201 206 212 234 243 204
268 255 250 242 239 249 260 252 235 205 172 166 155 150 148 157 166 166 156 156 159 160 175 178 180 166 161 180 172 172 181 183 180 181 180 184 196 204 202 216 241 249 258 227
278 258 241 229 230 238 230 221 191 169 169 174 165 157 159 163 160 158 164 166 174 185 202 191 173 168 172 180 164 184 186 185 184 182 187 200 201 197 220 253 261 277 270 261
299 233 208 217 216 208 209 188 168 153 141 170 169 173 175 177 174 176 173 169 171 207 177 173 168 178 182 181 174 181 189 187 188 190 197 208 206 220 216 210 242 259 280 279
326 248 195 196 198 197 198 189 179 155 173 169 175 175 185 185 175 173 177 183 185 172 184 172 177 180 187 173 174 189 188 190 196 203 208 213 210 215 223 238 255 265 278 291
12 120 139 141 149 152 161 174 167 153 153 186 180 178 169 164 167 172 173 177 178 171 167 182 197 190 187 177 188 195 198 201 207 215 216 215 215 221 235 247 265 286 289 296
105 125 130 128 133 137 144 146 143 145 148 154 152 146 155 162 173 182 189 176 171 156 179 198 201 179 166 178 193 198 200 211 218 220 217 218 220 225 233 250 271 273 274 287
69 124 132 130 128 131 136 143 147 149 147 151 151 150 157 164 171 168 162 164 169 161 189 195 179 177 177 189 198 209 212 212 216 219 218 220 226 232 244 257 267 269 275 281
33 97 137 123 128 142 148 148 149 151 149 145 145 150 156 156 156 153 160 161 160 173 178 180 184 188 197 207 218 216 218 216 221 218 213 223 233 242 252 262 272 272 274 278
162 126 118 112 118 134 159 157 150 150 153 153 150 153 148 146 152 158 157 160 167 164 175 184 197 206 208 219 225 223 224 223 223 223 233 238 242 248 253 259 266 271 276 286